Regional Weather Roundup
Issued by NWS New Orleans/Baton Rouge, LA

Home | Current Version | Previous Version | Text Only | Print | Product List | Glossary Off
Versions: 1 2 3 4 5 6 7 8 9 10 11 12 13 14 15 16 17 18 19 20 21 22 23 24 25 26 27 28 29 30 31 32 33 34 35 36 37 38 39 40 41 42 43 44 45 46 47 48 49 50

110
ASUS44 KLIX 230601
RWRLIX
NEW ORLEANS REGIONAL WEATHER ROUNDUP
NATIONAL WEATHER SERVICE NEW ORLEANS LA
100 AM CDT THU OCT 23 2014

NOTE: "FAIR" INDICATES FEW OR NO CLOUDS BELOW 12,000 FEET WITH NO
      SIGNIFICANT WEATHER AND/OR OBSTRUCTIONS TO VISIBILITY.
      SKY/WX - SKY CONDITION AND SIGNIFICANT WEATHER.
      TMP - AIR TEMPERATURE.     DP    - DEWPOINT TEMPERATURE.
      RH  - RELATIVE HUMIDITY.   PRES  - PRESSURE.
      HI  - HEAT INDEX.          WCI   - WIND CHILL INDEX.

*  THESE STATIONS ARE NOT NWS OR FAA STATIONS AND ARE NOT UNDER
   NWS QUALITY CONTROL.

LAZ038-040-048-061>063-065>067-069-230700-
SOUTHEAST LOUISIANA

CITY           SKY/WX    TMP DP  RH WIND       PRES   REMARKS
N.O. AUDUBON     N/A     67  51  55 MISG        N/A
6HR MIN TEMP:  66; 6HR MAX TEMP:  73;

N.O. INTL ARPT CLEAR     68  50  52 E13       30.07S
6HR MIN TEMP:  66; 6HR MAX TEMP:  73;

N.O. LAKEFRONT LGT RAIN  68  51  54 E21       30.07F
6HR MIN TEMP:  68; 6HR MAX TEMP:  74; 6HR PCP: TRACE;

N.O. DOWNTOWN*   N/A     66  46  48 NE7       30.08S
6HR MIN TEMP:  66; 6HR MAX TEMP:  73;

SLIDELL        CLEAR     55  49  80 NE5       30.08F
6HR MIN TEMP:  54; 6HR MAX TEMP:  65;

BATON ROUGE    CLEAR     57  50  77 NE5       30.09S
6HR MIN TEMP:  57; 6HR MAX TEMP:  65;

BOOTHVILLE     CLEAR     72  57  59 NE9G17    30.04F
6HR MIN TEMP:  70; 6HR MAX TEMP:  73;

BELLE CHASSE   CLEAR     61  52  72 NE6       30.06S
6HR MIN TEMP:  57; 6HR MAX TEMP:  65;

BOGALUSA*        N/A     51  47  88 CALM      30.11F
6HR MIN TEMP:  50; 6HR MAX TEMP:  68;

NEW ROADS*       N/A     57  51  79 N3        30.10S
6HR MIN TEMP:  56; 6HR MAX TEMP:  67;

GONZALES*        N/A     60  54  79 NE3       30.07F
6HR MIN TEMP:  59; 6HR MAX TEMP:  64;

HAMMOND*       NOT AVBL
HOUMA*         CLEAR     59  55  88 NE3       30.06S
6HR MIN TEMP:  56; 6HR MAX TEMP:  66;

PORT FOURCHON* CLEAR     70  63  78 NE7       30.07F

$$

MSZ070-080>082-230700-
SOUTHERN MISSISSIPPI

CITY           SKY/WX    TMP DP  RH WIND       PRES   REMARKS
MCCOMB         CLEAR     56  48  74 NE3       30.10F
6HR MIN TEMP:  56; 6HR MAX TEMP:  69;

GULFPORT       CLEAR     56  48  74 N5        30.08S
6HR MIN TEMP:  54; 6HR MAX TEMP:  71;

BILOXI         CLEAR     58  48  70 NE7       30.08F
6HR MIN TEMP:  58; 6HR MAX TEMP:  70;

PASCAGOULA     CLEAR     47  45  93 N3        30.07F
6HR MIN TEMP:  47; 6HR MAX TEMP:  64;


$$

COASTAL OBSERVATIONS
LAKE AND NEARSHORE STATIONS

STATION/POSITION TIME  TEMP    WIND        PRES    WAVE
                       AIR SEA DIR/SP/G            HT/PER
                 (UTC) (F)     (DEG/KT/KT) (MB)    (FT/S)
PASCAGOULA       0500   60      30/  7/ 10 1017.8
WAVELAND YACHT   0500   62      40/  9/ 11 1017.9
GRAND ISLE       0500   71 75   40/  9/ 12 1017.9
SOUTHWEST PASS   0500   73 82              1017.2
NEW CANAL        0500   70 71   70/ 20/ 24 1018.3
SHELL BEACH      0500   70 69   50/ 18/ 21 1017.9

OFFSHORE STATIONS

STATION/POSITION TIME  TEMP    WIND        PRES    WAVE
                       AIR SEA DIR/SP/G            HT/PER
                 (UTC) (F)     (DEG/KT/KT) (MB)    (FT/S)
64 S DAUPHIN ISL 0524   73 79   50/ 17/ 21 1016.9    4/ 5

$$




USA.gov is the U.S. government's official web portal to all federal, state and local government web resources and services.